Nashua, NH

7:22 PM EDT on October 22, 2019 (GMT -0400)
Boire

Weather History for KASH - August, 2019

Change the Weather History Date:

Thursday, August 8, 2019

  Actual Average Record
Temperature  
Mean Temperature 75 °F -  
Max Temperature 86 °F 82 °F 94 °F (1949)
Min Temperature 66 °F 58 °F 44 °F (1948)
Cooling Degree Days 10    
Growing Degree Days 25 (Base 50)    
Moisture  
Dew Point 68 °F    
Average Humidity 85    
Maximum Humidity 100    
Minimum Humidity 49    
Precipitation  
Precipitation 0.14 in - - ()
Sea Level Pressure  
Sea Level Pressure 29.69 in    
Wind  
Wind Speed 4 mph (SSW)    
Max Wind Speed 10 mph    
Max Gust Speed 18 mph    
Visibility 9 miles    
Events Rain , Thunderstorm    
Averages and records for this station are not official NWS values.
T = Trace of Precipitation, MM = Missing Value Source: NWS Daily Summary

Daily Weather History Graph

Daily Weather History Graph

Search for Another Location

Airport or City:

Astronomy

Aug. 08, 2019 Rise Set
Actual Time 5:44 AM EDT 7:58 PM EDT
Civil Twilight 5:13 AM EDT 8:29 PM EDT
Nautical Twilight 4:34 AM EDT 9:07 PM EDT
Astronomical Twilight 3:51 AM EDT 9:50 PM EDT
Moon 2:31 PM EDT (8/8) 12:06 AM EDT (8/8)
Length of Visible Light 15h 16m
Length of Day
14h 13m
First Quarter, 60% of the Moon is Illuminated
Aug 8
First Quarter
Aug 15
Full
Aug 23
Last Quarter
Aug 30
New
Sep 5
First Quarter

Hourly Weather History & Observations

Time (EDT) Temp. Heat Index Dew Point Humidity Pressure Visibility Wind Dir Wind Speed Gust Speed Precip Events Conditions
12:03 AM 68.0 °F - 68.0 °F 100% 29.77 in 10.0 mi SE 4.6 mph - 0.00 in Rain Light Rain
12:54 AM 68.0 °F - 68.0 °F 100% 29.78 in 4.0 mi SE 4.6 mph - 0.06 in Rain , Thunderstorm Thunderstorms and Rain
12:56 AM 68.0 °F - 68.0 °F 100% 29.79 in 5.0 mi SE 6.9 mph - 0.07 in Rain , Thunderstorm Thunderstorms and Rain
1:05 AM 68.0 °F - 68.0 °F 100% 29.77 in 7.0 mi SE 5.8 mph - 0.03 in Rain Light Rain
1:20 AM 68.0 °F - 68.0 °F 100% 29.77 in 10.0 mi SE 3.5 mph - 0.05 in Rain Light Rain
1:46 AM 68.0 °F - 68.0 °F 100% 29.75 in 10.0 mi SE 4.6 mph - 0.07 in Rain Light Rain
1:56 AM 68.0 °F - 68.0 °F 100% 29.76 in 10.0 mi SE 4.6 mph - 0.07 in   Overcast
2:56 AM 68.0 °F - 68.0 °F 100% 29.74 in 5.0 mi Variable 3.5 mph - 0.00 in Rain Light Rain
3:56 AM 68.0 °F - 68.0 °F 100% 29.73 in 10.0 mi Calm Calm - N/A   Overcast
4:56 AM 69.1 °F - 69.1 °F 100% 29.73 in 10.0 mi Variable 3.5 mph - N/A   Overcast
5:18 AM 69.8 °F - 69.8 °F 100% 29.71 in 10.0 mi Variable 3.5 mph - N/A   Overcast
5:56 AM 69.1 °F - 69.1 °F 100% 29.72 in 10.0 mi Calm Calm - N/A   Overcast
6:56 AM 69.1 °F - 69.1 °F 100% 29.72 in 10.0 mi Calm Calm - N/A   Mostly Cloudy
7:56 AM 70.0 °F - 70.0 °F 100% 29.73 in 10.0 mi WSW 3.5 mph - N/A   Mostly Cloudy
8:56 AM 73.0 °F - 71.1 °F 93% 29.70 in 10.0 mi SE 5.8 mph - N/A   Mostly Cloudy
9:56 AM 73.9 °F - 71.1 °F 91% 29.70 in 10.0 mi Variable 4.6 mph - N/A   Overcast
10:56 AM 77.0 °F - 70.0 °F 79% 29.69 in 10.0 mi Variable 4.6 mph - N/A   Overcast
11:56 AM 80.1 °F 83.2 °F 70.0 °F 71% 29.68 in 10.0 mi West 6.9 mph - N/A   Mostly Cloudy
12:56 PM 82.0 °F 84.9 °F 68.0 °F 62% 29.66 in 10.0 mi West 8.1 mph 18.4 mph N/A   Mostly Cloudy
1:56 PM 84.0 °F 87.0 °F 68.0 °F 58% 29.64 in 10.0 mi West 8.1 mph - N/A   Mostly Cloudy
2:56 PM 84.0 °F 86.5 °F 66.9 °F 56% 29.63 in 10.0 mi Variable 6.9 mph - N/A   Mostly Cloudy
3:56 PM 84.9 °F 86.6 °F 64.9 °F 51% 29.63 in 10.0 mi SW 8.1 mph - N/A   Scattered Clouds
4:56 PM 84.9 °F 86.1 °F 64.0 °F 49% 29.63 in 10.0 mi Variable 5.8 mph 16.1 mph N/A   Partly Cloudy
5:56 PM 82.9 °F 84.6 °F 64.9 °F 54% 29.62 in 10.0 mi Variable 4.6 mph - N/A   Partly Cloudy
6:56 PM 80.1 °F 82.3 °F 66.9 °F 64% 29.63 in 10.0 mi Calm Calm - N/A   Clear
7:04 PM 80.6 °F 83.2 °F 68.0 °F 65% 29.62 in 10.0 mi Calm Calm - N/A Thunderstorm Thunderstorm
7:56 PM 73.0 °F - 66.0 °F 79% 29.67 in 10.0 mi WNW 9.2 mph - N/A   Overcast
8:06 PM 71.6 °F - 68.0 °F 88% 29.64 in 10.0 mi WNW 10.4 mph - 0.00 in Rain , Thunderstorm Light Rain
8:20 PM 69.8 °F - 66.2 °F 88% 29.64 in 10.0 mi West 3.5 mph - 0.00 in   Mostly Cloudy
8:56 PM 70.0 °F - 66.9 °F 90% 29.63 in 10.0 mi Calm Calm - 0.00 in Rain Light Rain
9:56 PM 69.1 °F - 66.0 °F 90% 29.67 in 10.0 mi WNW 4.6 mph - 0.00 in   Clear
10:56 PM 66.9 °F - 64.9 °F 93% 29.65 in 10.0 mi Calm Calm - N/A   Clear
11:56 PM 68.0 °F - 63.0 °F 84% 29.66 in 10.0 mi Calm Calm - N/A   Clear